• In Kazakhstan
  • List of Countries
  • For 7 days
  • Water Temperature
  • Satellite Maps
  • Weather Map
  • News
  • Weather Widgets
  • user-avatar
    Login

    Hourly Weather Sutki

    Today, 21 April, Sunday

    Time Temperature Precipitation Wind Pressure Humidity
    00:00 +4°C° 0 mm 2 mps 748 mmHg 94%
    01:00 +4°C° 0 mm 2 mps 748 mmHg 95%
    02:00 +4°C° 0 mm 2 mps 748 mmHg 95%
    03:00 +3°C° 0 mm 2 mps 748 mmHg 96%
    04:00 +3°C° 0 mm 2 mps 748 mmHg 96%
    05:00 +3°C° 0 mm 2 mps 748 mmHg 96%
    06:00 +5°C° 0 mm 2 mps 748 mmHg 88%
    07:00 +6°C° 0 mm 2 mps 748 mmHg 80%
    08:00 +8°C° 0 mm 2 mps 748 mmHg 71%
    09:00 +10°C° 0 mm 2 mps 749 mmHg 64%
    10:00 +12°C° 0 mm 3 mps 749 mmHg 57%
    11:00 +14°C° 0 mm 3 mps 749 mmHg 50%
    12:00 +14°C° 0.1 mm 3 mps 749 mmHg 47%
    13:00 +16°C° 0.1 mm 2 mps 749 mmHg 45%
    14:00 +16°C° 0.1 mm 2 mps 749 mmHg 43%
    15:00 +16°C° 0.1 mm 2 mps 749 mmHg 45%
    16:00 +15°C° 0.1 mm 2 mps 749 mmHg 47%
    17:00 +15°C° 0.1 mm 2 mps 749 mmHg 49%
    18:00 +14°C° 0.1 mm 1 mps 750 mmHg 55%
    19:00 +12°C° 0.1 mm 1 mps 750 mmHg 62%
    20:00 +11°C° 0.1 mm 1 mps 750 mmHg 69%
    21:00 +10°C° 0 mm 1 mps 750 mmHg 72%
    22:00 +9°C° 0 mm 1 mps 751 mmHg 76%
    23:00 +8°C° 0 mm 1 mps 751 mmHg 79%

    Tomorrow, 22 April, Monday

    Time Temperature Precipitation Wind Pressure Humidity
    00:00 +8°C° 0 mm 1 mps 751 mmHg 79%
    01:00 +8°C° 0 mm 1 mps 751 mmHg 79%
    02:00 +7°C° 0 mm 1 mps 752 mmHg 79%
    03:00 +8°C° 0 mm 1 mps 752 mmHg 77%
    04:00 +8°C° 0 mm 1 mps 752 mmHg 75%
    05:00 +8°C° 0 mm 1 mps 752 mmHg 73%
    06:00 +9°C° 0 mm 1 mps 752 mmHg 67%
    07:00 +11°C° 0 mm 1 mps 753 mmHg 62%
    08:00 +12°C° 0 mm 1 mps 753 mmHg 56%
    09:00 +13°C° 0 mm 1 mps 753 mmHg 51%
    10:00 +15°C° 0 mm 1 mps 753 mmHg 47%
    11:00 +16°C° 0 mm 1 mps 753 mmHg 42%
    12:00 +16°C° 0 mm 1 mps 753 mmHg 41%
    13:00 +18°C° 0 mm 1 mps 753 mmHg 40%
    14:00 +18°C° 0 mm 1 mps 753 mmHg 38%
    15:00 +16°C° 0 mm 1 mps 753 mmHg 41%
    16:00 +16°C° 0 mm 1 mps 752 mmHg 44%
    17:00 +15°C° 0 mm 1 mps 752 mmHg 47%
    18:00 +14°C° 0 mm 1 mps 752 mmHg 51%
    19:00 +13°C° 0 mm 1 mps 753 mmHg 54%
    20:00 +12°C° 0 mm 1 mps 753 mmHg 57%
    21:00 +12°C° 0 mm 1 mps 753 mmHg 57%
    22:00 +12°C° 0 mm 1 mps 753 mmHg 57%
    23:00 +12°C° 0 mm 1 mps 753 mmHg 56%

    Day after tomorrow, 23 April, Tuesday

    Time Temperature Precipitation Wind Pressure Humidity
    00:00 +11°C° 0 mm 1 mps 753 mmHg 58%
    01:00 +11°C° 0 mm 1 mps 754 mmHg 59%
    02:00 +11°C° 0 mm 1 mps 754 mmHg 60%
    03:00 +10°C° 0 mm 1 mps 754 mmHg 61%
    04:00 +10°C° 0 mm 1 mps 754 mmHg 62%
    05:00 +10°C° 0 mm 1 mps 754 mmHg 63%
    06:00 +11°C° 0 mm 1 mps 754 mmHg 61%
    07:00 +12°C° 0 mm 2 mps 754 mmHg 58%
    08:00 +13°C° 0 mm 2 mps 754 mmHg 56%
    09:00 +14°C° 0 mm 2 mps 754 mmHg 50%
    10:00 +16°C° 0 mm 2 mps 754 mmHg 43%
    11:00 +18°C° 0 mm 2 mps 754 mmHg 37%
    12:00 +19°C° 0 mm 1 mps 754 mmHg 36%
    13:00 +19°C° 0 mm 1 mps 754 mmHg 36%
    14:00 +19°C° 0 mm 1 mps 754 mmHg 35%
    15:00 +19°C° 0 mm 1 mps 754 mmHg 37%
    16:00 +19°C° 0 mm 1 mps 753 mmHg 39%
    17:00 +16°C° 0 mm 0 mps 753 mmHg 41%
    18:00 +16°C° 0 mm 1 mps 753 mmHg 45%
    19:00 +14°C° 0 mm 1 mps 753 mmHg 48%
    20:00 +12°C° 0 mm 1 mps 753 mmHg 52%
    21:00 +12°C° 0 mm 1 mps 753 mmHg 54%
    22:00 +11°C° 0 mm 1 mps 754 mmHg 56%
    23:00 +10°C° 0 mm 1 mps 754 mmHg 58%

    24 April, Wednesday

    Time Temperature Precipitation Wind Pressure Humidity
    00:00 +10°C° 0 mm 1 mps 754 mmHg 59%
    01:00 +10°C° 0 mm 1 mps 754 mmHg 60%
    02:00 +9°C° 0 mm 1 mps 754 mmHg 62%
    03:00 +9°C° 0 mm 1 mps 754 mmHg 63%
    04:00 +9°C° 0 mm 1 mps 754 mmHg 64%
    05:00 +9°C° 0 mm 1 mps 754 mmHg 65%
    06:00 +11°C° 0 mm 1 mps 754 mmHg 59%
    07:00 +13°C° 0 mm 1 mps 755 mmHg 53%
    08:00 +15°C° 0 mm 1 mps 755 mmHg 46%
    09:00 +16°C° 0 mm 0 mps 755 mmHg 42%
    10:00 +18°C° 0 mm 0 mps 755 mmHg 38%
    11:00 +20°C° 0 mm 0 mps 754 mmHg 33%
    12:00 +20°C° 0 mm 0 mps 754 mmHg 32%
    13:00 +20°C° 0 mm 0 mps 754 mmHg 31%
    14:00 +23°C° 0 mm 1 mps 754 mmHg 30%
    15:00 +22°C° 0 mm 1 mps 753 mmHg 32%
    16:00 +21°C° 0 mm 1 mps 753 mmHg 33%
    17:00 +21°C° 0 mm 1 mps 753 mmHg 34%
    18:00 +19°C° 0 mm 1 mps 753 mmHg 39%
    19:00 +16°C° 0 mm 1 mps 753 mmHg 45%
    20:00 +14°C° 0 mm 1 mps 753 mmHg 51%
    21:00 +14°C° 0 mm 1 mps 753 mmHg 54%
    22:00 +13°C° 0 mm 1 mps 753 mmHg 57%
    23:00 +12°C° 0 mm 1 mps 753 mmHg 60%

    25 April, Thursday

    Time Temperature Precipitation Wind Pressure Humidity
    00:00 +12°C° 0 mm 1 mps 753 mmHg 62%
    01:00 +10°C° 0 mm 0 mps 753 mmHg 64%
    02:00 +10°C° 0 mm 0 mps 753 mmHg 66%
    03:00 +10°C° 0 mm 0 mps 753 mmHg 67%
    04:00 +9°C° 0 mm 0 mps 753 mmHg 68%
    05:00 +9°C° 0 mm 0 mps 753 mmHg 69%
    06:00 +11°C° 0 mm 0 mps 753 mmHg 62%
    07:00 +14°C° 0 mm 0 mps 753 mmHg 56%
    08:00 +16°C° 0 mm 0 mps 753 mmHg 49%
    09:00 +19°C° 0 mm 1 mps 753 mmHg 45%
    10:00 +19°C° 0 mm 2 mps 753 mmHg 42%
    11:00 +20°C° 0 mm 3 mps 753 mmHg 38%
    12:00 +20°C° 0 mm 3 mps 752 mmHg 38%
    13:00 +21°C° 0 mm 3 mps 752 mmHg 37%
    14:00 +21°C° 0 mm 3 mps 752 mmHg 37%
    15:00 +21°C° 0 mm 3 mps 751 mmHg 38%
    16:00 +20°C° 0 mm 3 mps 751 mmHg 39%
    17:00 +20°C° 0 mm 3 mps 750 mmHg 41%
    18:00 +18°C° 0 mm 2 mps 750 mmHg 47%
    19:00 +16°C° 0 mm 2 mps 750 mmHg 54%
    20:00 +14°C° 0 mm 1 mps 750 mmHg 60%
    21:00 +13°C° 0 mm 1 mps 750 mmHg 63%
    22:00 +13°C° 0 mm 1 mps 749 mmHg 65%
    23:00 +12°C° 0 mm 1 mps 749 mmHg 68%

    26 April, Friday

    Time Temperature Precipitation Wind Pressure Humidity
    00:00 +12°C° 0 mm 1 mps 749 mmHg 70%
    01:00 +10°C° 0 mm 2 mps 749 mmHg 71%
    02:00 +10°C° 0 mm 2 mps 749 mmHg 73%
    03:00 +9°C° 0 mm 2 mps 749 mmHg 75%
    04:00 +9°C° 0 mm 2 mps 749 mmHg 76%
    05:00 +9°C° 0 mm 2 mps 748 mmHg 77%
    06:00 +12°C° 0 mm 2 mps 748 mmHg 70%
    07:00 +14°C° 0 mm 2 mps 748 mmHg 64%
    08:00 +16°C° 0 mm 3 mps 748 mmHg 57%
    09:00 +17°C° 0 mm 3 mps 747 mmHg 51%
    10:00 +18°C° 0 mm 4 mps 747 mmHg 46%
    11:00 +20°C° 0 mm 4 mps 746 mmHg 40%
    12:00 +20°C° 0 mm 4 mps 746 mmHg 39%
    13:00 +21°C° 0 mm 4 mps 746 mmHg 38%
    14:00 +21°C° 0 mm 4 mps 745 mmHg 37%
    15:00 +21°C° 0 mm 4 mps 745 mmHg 39%
    16:00 +21°C° 0 mm 4 mps 744 mmHg 41%
    17:00 +20°C° 0 mm 3 mps 744 mmHg 42%
    18:00 +18°C° 0 mm 3 mps 744 mmHg 49%
    19:00 +17°C° 0 mm 2 mps 743 mmHg 56%
    20:00 +15°C° 0 mm 2 mps 743 mmHg 63%
    21:00 +14°C° 0 mm 2 mps 743 mmHg 65%
    22:00 +13°C° 0 mm 2 mps 743 mmHg 68%
    23:00 +13°C° 0 mm 2 mps 743 mmHg 70%
    Show more